Tracking 25710 objects as of 6-Jul-2022
HD Live streaming from Space Station
objects crossing your sky now

FENGYUN 1C DEB

Track FENGYUN 1C DEB now!
10-day predictions


NORAD ID: 30528
Int'l Code: 1999-025AJS
Perigee: 758.0 km
Apogee: 974.7 km
Inclination: 98.3 °
Period: 102.1 minutes
Semi major axis: 7237 km
RCS: 0.0209 m2 (small)
Launch date: May 10, 1999
Source: People's Republic of China (PRC)
Launch site: Taiyaun Space Center, China (TSC)

Note: This is SATELLITE DEBRIS
aabbcc
Your satellite tracking list
Your tracking list is empty




NASA's NSSDC Master Catalog

Two Line Element Set (TLE):
1 30528U 99025AJS 22186.82461014  .00000218  00000-0  13171-3 0  9995
2 30528  98.2698 135.3544 0149658 239.3919 185.2116 14.10047774794465
Source of the keplerian elements: AFSPC